Weather History for CWEK - February, 2013

Change the Weather History Date:

Saturday, February 9, 2013

  Actual Average Record
Temperature  
Mean Temperature 42 °F -  
Max Temperature 44 °F - - ()
Min Temperature 40 °F - - ()
Degree Days  
Heating Degree Days 23    
Moisture  
Dew Point 42 °F    
Average Humidity 95    
Maximum Humidity 99    
Minimum Humidity 90    
Precipitation  
Precipitation 0.01 in - - ()
Sea Level Pressure  
Sea Level Pressure 30.24 in    
Wind  
Wind Speed 8 mph ()    
Max Wind Speed 15 mph    
Max Gust Speed -    
T = Trace of Precipitation, MM = Missing Value Source: Averaged Metar Reports

Daily Weather History Graph

Daily Weather History Graph

Search for Another Location

Airport or City:

Trip Planner

Search our weather history database for the weather conditions in past years. The results will help you decide how hot, cold, wet, or windy it might be!

Date:

Astronomy

Feb. 09, 2013 Rise Set
Actual Time 8:15 AM PST 5:39 PM PST
Civil Twilight 7:37 AM PST 6:17 PM PST
Nautical Twilight 6:55 AM PST 6:59 PM PST
Astronomical Twilight 6:13 AM PST 7:41 PM PST
Moon 7:29 AM PST (2/9) 5:36 PM PST (2/9)
Length of Visible Light 10h 39m
Length of Day
9h 23m
Waning Crescent, 0% of the Moon is Illuminated
Feb 9
Waning Crescent
Feb 9
New
Feb 17
First Quarter
Feb 25
Full
Mar 4
Last Quarter

Hourly Weather History & Observations

Time (PST) Temp. Windchill Dew Point Humidity Pressure Visibility Wind Dir Wind Speed Gust Speed Precip Events Conditions
12:00 AM 43.2 °F 35.9 °F 42.8 °F 99% 30.15 in - South 15.0 mph - N/A   Unknown
1:00 AM 43.3 °F 37.7 °F 42.4 °F 97% 30.17 in - SW 10.4 mph - N/A   Unknown
2:00 AM 43.3 °F 38.1 °F 42.4 °F 97% 30.19 in - SW 9.2 mph - N/A   Unknown
3:00 AM 43.0 °F 38.2 °F 42.1 °F 97% 30.20 in - SW 8.1 mph - N/A   Unknown
4:00 AM 43 °F - 42 °F 93% 30.20 in - SW 6.9 mph - -  
4:00 AM 42.6 °F 38.4 °F 41.7 °F 97% 30.20 in - SW 6.9 mph - N/A   Unknown
6:00 AM 43.0 °F 40.3 °F 41.5 °F 95% 30.22 in - SSW 4.6 mph - N/A   Unknown
7:00 AM 43.3 °F 38.1 °F 41.7 °F 94% 30.22 in - South 9.2 mph - N/A   Unknown
8:00 AM 43.2 °F 36.6 °F 42.1 °F 96% 30.24 in - South 12.7 mph - N/A   Unknown
9:00 AM 43.3 °F 37.2 °F 42.1 °F 95% 30.24 in - SSE 11.5 mph - N/A   Unknown
10:00 AM 43 °F - 42 °F 93% 30.25 in - South 9.2 mph - -  
10:00 AM 43.0 °F 37.7 °F 41.7 °F 95% 30.25 in - South 9.2 mph - N/A   Unknown
11:00 AM 43.3 °F 39.9 °F 41.9 °F 95% 30.27 in - South 5.8 mph - N/A   Unknown
12:00 PM 44.1 °F 41.5 °F 42.4 °F 94% 30.28 in - East 4.6 mph - N/A   Unknown
1:00 PM 43.7 °F 40.3 °F 42.1 °F 94% 30.28 in - ESE 5.8 mph - N/A   Unknown
2:00 PM 43.9 °F 41.3 °F 42.1 °F 93% 30.28 in - SSE 4.6 mph - N/A   Unknown
3:00 PM 44.2 °F 42.7 °F 42.3 °F 93% 30.27 in - SE 3.5 mph - N/A   Unknown
4:00 PM 44 °F - 42 °F 90% 30.27 in - SE 4.6 mph - -  
4:00 PM 44.2 °F 41.8 °F 42.1 °F 92% 30.27 in - SE 4.6 mph - N/A   Unknown
5:00 PM 43.7 °F 40.3 °F 42.3 °F 95% 30.27 in - East 5.8 mph - N/A   Unknown
6:00 PM 43.5 °F 37.9 °F 42.4 °F 96% 30.27 in - East 10.4 mph - N/A   Unknown
7:00 PM 43.7 °F 38.6 °F 42.6 °F 96% 30.27 in - ENE 9.2 mph - N/A   Unknown
8:00 PM 43.7 °F 38.6 °F 42.6 °F 96% 30.27 in - ENE 9.2 mph - N/A   Unknown
9:00 PM 43.9 °F 38.3 °F 42.6 °F 95% 30.27 in - East 10.4 mph - N/A   Unknown
10:00 PM 44 °F - 43 °F 93% 30.26 in - East 6.9 mph - -  
10:00 PM 44.1 °F 40.1 °F 42.6 °F 95% 30.26 in - East 6.9 mph - N/A   Unknown
11:00 PM 44.8 °F 40.4 °F 42.6 °F 92% 30.26 in - SSE 8.1 mph - N/A   Unknown